Change the Weather History Date:

Friday, November 9, 2012

  Actual Average (KABR) Record (KABR)
Temperature  
Mean Temperature 32 °F 33 °F  
Max Temperature 35 °F 44 °F 68 °F (1930)
Min Temperature 28 °F 22 °F 0 °F (1966)
Degree Days  
Heating Degree Days 34 32  
Month to date heating degree days 268  
Since 1 July heating degree days 1159  
Cooling Degree Days 0 0  
Month to date cooling degree days 0  
Year to date cooling degree days 525  
Moisture  
Dew Point 31 °F    
Average Humidity 98    
Maximum Humidity 100    
Minimum Humidity 87    
Precipitation  
Precipitation 0.00 in 0.03 in 0.54 in (1998)
Month to date precipitation 0.27  
Year to date precipitation 20.74  
Snow  
Snow 0.00 in - - ()
Month to date snowfall  
Since 1 July snowfall  
Snow Depth -    
Sea Level Pressure  
Sea Level Pressure 29.99 in    
Wind  
Wind Speed 18 mph (NE)    
Max Wind Speed 23 mph    
Max Gust Speed 30 mph    
Visibility 9 miles    
Events      
T = Trace of Precipitation, MM = Missing Value Source: NWS Daily Summary

Daily Weather History Graph

Daily Weather History Graph

Search for Another Location

Airport or City:

Trip Planner

Search our weather history database for the weather conditions in past years. The results will help you decide how hot, cold, wet, or windy it might be!

Date:

Astronomy

Nov. 09, 2012 Rise Set
Actual Time 7:25 AM CST 5:06 PM CST
Civil Twilight 6:53 AM CST 5:38 PM CST
Nautical Twilight 6:17 AM CST 6:14 PM CST
Astronomical Twilight 5:42 AM CST 6:49 PM CST
Moon 2:10 AM CST (11/9) 2:33 PM CST (11/9)
Length of Visible Light 10h 44m
Length of Day
9h 40m
Waning Crescent, 23% of the Moon is Illuminated
Nov 9
Waning Crescent
Nov 13
New
Nov 20
First Quarter
Nov 28
Full
Dec 6
Last Quarter

Hourly Weather History & Observations

Time (CST) Temp. Windchill Dew Point Humidity Pressure Visibility Wind Dir Wind Speed Gust Speed Precip Events Conditions
12:15 AM 32.0 °F 20.1 °F 32.0 °F 100% 30.11 in 10.0 mi NNE 19.6 mph 25.3 mph N/A   Unknown
12:35 AM 32.0 °F 19.8 °F 32.0 °F 100% 30.10 in 9.0 mi NNE 20.7 mph 29.9 mph N/A   Unknown
12:55 AM 30.2 °F 17.8 °F 30.2 °F 100% 30.10 in 8.0 mi NNE 19.6 mph 24.2 mph N/A   Unknown
1:15 AM 30.2 °F 18.1 °F 30.2 °F 100% 30.10 in 7.0 mi NNE 18.4 mph 26.5 mph N/A   Unknown
1:35 AM 30.2 °F 18.1 °F 30.2 °F 100% 30.10 in 7.0 mi NNE 18.4 mph - N/A   Unknown
1:55 AM 28.4 °F 15.4 °F 28.4 °F 100% 30.10 in 7.0 mi NNE 19.6 mph 25.3 mph N/A   Unknown
2:15 AM 28.4 °F 16.2 °F 28.4 °F 100% 30.11 in 6.0 mi NNE 17.3 mph 24.2 mph N/A   Mist
2:35 AM 28.4 °F 15.4 °F 28.4 °F 100% 30.11 in 7.0 mi NNE 19.6 mph - N/A   Unknown
2:55 AM 28.4 °F 16.2 °F 28.4 °F 100% 30.10 in 8.0 mi NNE 17.3 mph 27.6 mph N/A   Unknown
3:15 AM 28.4 °F 15.1 °F 28.4 °F 100% 30.09 in 8.0 mi NNE 20.7 mph 26.5 mph N/A   Unknown
3:35 AM 28.4 °F 15.4 °F 28.4 °F 100% 30.09 in 10.0 mi NNE 19.6 mph 27.6 mph N/A   Unknown
3:55 AM 28.4 °F 14.7 °F 28.4 °F 100% 30.09 in 7.0 mi NNE 21.9 mph 26.5 mph N/A   Unknown
4:15 AM 28.4 °F 15.1 °F 28.4 °F 100% 30.09 in 8.0 mi NNE 20.7 mph 25.3 mph N/A   Unknown
4:35 AM 28.4 °F 14.4 °F 28.4 °F 100% 30.08 in 9.0 mi NNE 23.0 mph 28.8 mph N/A   Overcast
4:55 AM 28.4 °F 14.4 °F 28.4 °F 100% 30.08 in 10.0 mi NNE 23.0 mph 27.6 mph N/A   Overcast
5:15 AM 28.4 °F 14.7 °F 28.4 °F 100% 30.08 in 10.0 mi NNE 21.9 mph 29.9 mph N/A   Overcast
5:35 AM 28.4 °F 14.7 °F 28.4 °F 100% 30.08 in 9.0 mi NNE 21.9 mph 26.5 mph N/A   Overcast
5:55 AM 28.4 °F 15.1 °F 28.4 °F 100% 30.09 in 9.0 mi NNE 20.7 mph 29.9 mph N/A   Overcast
6:15 AM 28.4 °F 16.2 °F 28.4 °F 100% 30.09 in 10.0 mi NNE 17.3 mph 23.0 mph N/A   Overcast
6:35 AM 28.4 °F 16.6 °F 28.4 °F 100% 30.08 in 10.0 mi NNE 16.1 mph - N/A   Overcast
6:55 AM 28.4 °F 15.4 °F 28.4 °F 100% 30.08 in 10.0 mi NE 19.6 mph 26.5 mph N/A   Overcast
7:35 AM 28.4 °F 15.8 °F 28.4 °F 100% 30.07 in 10.0 mi NE 18.4 mph 23.0 mph N/A   Overcast
7:55 AM 28.4 °F 15.4 °F 28.4 °F 100% 30.07 in 10.0 mi NE 19.6 mph - N/A   Overcast
8:15 AM 28.4 °F 15.8 °F 28.4 °F 100% 30.07 in 10.0 mi NE 18.4 mph - N/A   Unknown
8:55 AM 28.4 °F 16.6 °F 28.4 °F 100% 30.07 in 10.0 mi NE 16.1 mph - N/A   Overcast
9:15 AM 28.4 °F 16.6 °F 28.4 °F 100% 30.07 in 10.0 mi NE 16.1 mph - N/A   Overcast
9:35 AM 28.4 °F 17.0 °F 28.4 °F 100% 30.06 in 10.0 mi NE 15.0 mph - N/A   Overcast
9:55 AM 30.2 °F 19.3 °F 30.2 °F 100% 30.05 in 10.0 mi NE 15.0 mph - N/A   Overcast
10:15 AM 30.2 °F 19.3 °F 30.2 °F 100% 30.05 in 10.0 mi NE 15.0 mph - N/A   Overcast
10:35 AM 32.0 °F 22.1 °F 32.0 °F 100% 30.05 in 10.0 mi NE 13.8 mph - N/A   Overcast
10:55 AM 32.0 °F 20.8 °F 32.0 °F 100% 30.03 in 10.0 mi NE 17.3 mph 23.0 mph N/A   Overcast
11:15 AM 32.0 °F 21.2 °F 32.0 °F 100% 30.03 in 10.0 mi NE 16.1 mph - N/A   Overcast
11:35 AM 32.0 °F 20.5 °F 32.0 °F 100% 30.02 in 10.0 mi NE 18.4 mph - N/A   Overcast
11:55 AM 32.0 °F 20.8 °F 32.0 °F 100% 30.01 in 10.0 mi NE 17.3 mph 23.0 mph N/A   Overcast
12:15 PM 32.0 °F 20.1 °F 32.0 °F 100% 30.00 in 10.0 mi NE 19.6 mph 24.2 mph N/A   Overcast
12:35 PM 32.0 °F 21.2 °F 32.0 °F 100% 30.00 in 10.0 mi NE 16.1 mph 24.2 mph N/A   Overcast
12:55 PM 32.0 °F 21.2 °F 32.0 °F 100% 30.00 in 10.0 mi NNE 16.1 mph - N/A   Overcast
1:15 PM 32.0 °F 20.5 °F 32.0 °F 100% 29.99 in 10.0 mi NNE 18.4 mph - N/A   Overcast
1:35 PM 32.0 °F 20.1 °F 32.0 °F 100% 29.98 in 10.0 mi NE 19.6 mph - N/A   Overcast
1:55 PM 32.0 °F 20.5 °F 32.0 °F 100% 29.97 in 10.0 mi NNE 18.4 mph - N/A   Overcast
2:15 PM 32.0 °F 20.5 °F 32.0 °F 100% 29.96 in 10.0 mi NE 18.4 mph 21.9 mph N/A   Overcast
2:35 PM 32.0 °F 20.5 °F 32.0 °F 100% 29.96 in 10.0 mi NE 18.4 mph - N/A   Overcast
2:55 PM 32.0 °F 19.8 °F 32.0 °F 100% 29.94 in 10.0 mi NE 20.7 mph 26.5 mph N/A   Overcast
3:15 PM 32.0 °F 20.8 °F 32.0 °F 100% 29.94 in 10.0 mi NE 17.3 mph 24.2 mph N/A   Overcast
3:35 PM 33.8 °F 22.8 °F 32.0 °F 93% 29.93 in 10.0 mi NE 18.4 mph - N/A   Overcast
3:55 PM 33.8 °F 23.9 °F 32.0 °F 93% 29.93 in 10.0 mi NE 15.0 mph - N/A   Overcast
4:15 PM 33.8 °F 23.9 °F 32.0 °F 93% 29.94 in 10.0 mi NE 15.0 mph - N/A   Overcast
4:35 PM 33.8 °F 23.9 °F 32.0 °F 93% 29.93 in 10.0 mi NE 15.0 mph - N/A   Overcast
4:55 PM 33.8 °F 22.8 °F 32.0 °F 93% 29.92 in 10.0 mi NE 18.4 mph - N/A   Overcast
5:15 PM 33.8 °F 23.5 °F 32.0 °F 93% 29.92 in 10.0 mi NE 16.1 mph 21.9 mph N/A   Overcast
5:35 PM 33.8 °F 23.2 °F 32.0 °F 93% 29.92 in 10.0 mi NE 17.3 mph - N/A   Overcast
5:55 PM 33.8 °F 23.9 °F 32.0 °F 93% 29.92 in 10.0 mi NE 15.0 mph 19.6 mph N/A   Overcast
6:15 PM 33.8 °F 22.8 °F 32.0 °F 93% 29.91 in 10.0 mi NE 18.4 mph - N/A   Overcast
6:35 PM 33.8 °F 23.2 °F 32.0 °F 93% 29.91 in 10.0 mi NE 17.3 mph 20.7 mph N/A   Overcast
6:55 PM 33.8 °F 23.5 °F 32.0 °F 93% 29.91 in 10.0 mi NE 16.1 mph - N/A   Overcast
7:15 PM 33.8 °F 24.8 °F 32.0 °F 93% 29.91 in 10.0 mi NE 12.7 mph - N/A   Overcast
7:35 PM 35.6 °F 25.5 °F 32.0 °F 87% 29.91 in 10.0 mi NE 17.3 mph 21.9 mph N/A   Overcast
7:55 PM 35.6 °F 26.2 °F 32.0 °F 87% 29.89 in 10.0 mi NE 15.0 mph - N/A   Overcast
8:15 PM 35.6 °F 26.6 °F 33.8 °F 93% 29.90 in 10.0 mi NE 13.8 mph - N/A   Overcast
8:35 PM 35.6 °F 26.6 °F 33.8 °F 93% 29.89 in 10.0 mi NE 13.8 mph - N/A   Overcast
8:55 PM 35.6 °F 26.6 °F 33.8 °F 93% 29.89 in 10.0 mi NE 13.8 mph - N/A   Overcast
9:15 PM 35.6 °F 25.9 °F 33.8 °F 93% 29.88 in 10.0 mi ENE 16.1 mph - N/A   Overcast
9:35 PM 35.6 °F 25.5 °F 33.8 °F 93% 29.87 in 10.0 mi ENE 17.3 mph - N/A   Overcast
9:55 PM 35.6 °F 25.2 °F 33.8 °F 93% 29.85 in 10.0 mi ENE 18.4 mph - N/A   Overcast
10:15 PM 35.6 °F 25.9 °F 33.8 °F 93% 29.84 in 10.0 mi ENE 16.1 mph - N/A   Overcast
10:35 PM 35.6 °F 26.2 °F 35.6 °F 100% 29.84 in 10.0 mi ENE 15.0 mph - N/A   Overcast
10:55 PM 35.6 °F 26.2 °F 35.6 °F 100% 29.84 in 10.0 mi ENE 15.0 mph - N/A   Overcast
11:15 PM 35.6 °F 26.2 °F 35.6 °F 100% 29.82 in 9.0 mi ENE 15.0 mph 21.9 mph N/A   Overcast
11:35 PM 35.6 °F 26.2 °F 35.6 °F 100% 29.81 in 3.0 mi ENE 15.0 mph - N/A   Overcast
11:55 PM 35.6 °F 25.9 °F 35.6 °F 100% 29.80 in 3.0 mi ENE 16.1 mph - N/A   Overcast